FW0525 Weather Reports


Display with metric or nautical units.
time (UTC)temp
F
wind
direction
speed
MPH
gust
MPH
rain 1hr
in
rain 24hr
in
rain mn
in
humidity
%
barometer
mb
20220523101429 72 126 0.0 0.0 0.00 0.00 0.00 96 1020.6
20220523100420 72 126 0.0 0.0 0.00 0.00 0.00 96 1020.7
20220523095913 72 126 0.0 0.0 0.00 0.00 0.00 96 1020.5
20220523095410 72 126 0.0 0.0 0.00 0.00 0.00 96 1020.6
20220523094859 73 126 0.0 0.0 0.00 0.00 0.00 96 1020.6
20220523094352 73 126 0.0 0.0 0.00 0.00 0.00 96 1020.7
20220523093847 73 126 0.0 0.0 0.00 0.00 0.00 96 1020.6
20220523093342 73 126 0.0 0.0 0.00 0.00 0.00 96 1020.6
20220523092834 73 126 0.0 0.0 0.00 0.00 0.00 96 1020.5
20220523092331 73 126 0.0 0.0 0.00 0.00 0.00 96 1020.5
20220523091822 73 126 0.0 0.0 0.00 0.00 0.00 96 1020.6
20220523091319 73 126 0.0 0.0 0.00 0.00 0.00 96 1020.5
20220523090811 73 126 0.0 0.0 0.00 0.00 0.00 96 1020.6
20220523090305 73 126 0.0 0.0 0.00 0.00 0.00 96 1020.6
20220523085800 73 126 0.0 0.0 0.00 0.00 0.00 96 1020.6
20220523085253 73 126 0.0 0.0 0.00 0.00 0.00 96 1020.6
20220523084747 73 126 0.0 0.0 0.00 0.00 0.00 96 1020.7
20220523084244 73 126 0.0 0.0 0.00 0.00 0.00 96 1020.7
20220523083736 73 126 0.0 0.0 0.00 0.00 0.00 96 1020.7
20220523083232 74 126 0.0 0.0 0.00 0.00 0.00 96 1020.8
20220523082729 74 126 0.0 0.0 0.00 0.00 0.00 96 1020.7
20220523082217 74 126 0.0 0.0 0.00 0.00 0.00 96 1020.8
20220523081714 74 126 0.0 0.0 0.00 0.00 0.00 96 1020.8
20220523081205 74 126 0.0 0.0 0.00 0.00 0.00 96 1020.9
20220523080659 74 126 0.0 0.0 0.00 0.00 0.00 96 1020.9
20220523080156 74 126 0.0 0.0 0.00 0.00 0.00 96 1020.9
20220523075651 74 126 0.0 0.0 0.00 0.00 0.00 95 1020.9
20220523075147 74 126 0.0 0.0 0.00 0.00 0.00 95 1021.0
20220523074635 74 126 0.0 0.0 0.00 0.00 0.00 95 1021.1
20220523074130 74 126 0.0 0.0 0.00 0.00 0.00 95 1021.1
20220523073624 74 126 0.0 0.0 0.00 0.00 0.00 95 1021.2
20220523073118 74 126 0.0 0.0 0.00 0.00 0.00 95 1021.2
20220523072610 74 126 0.0 0.0 0.00 0.00 0.00 95 1021.2
20220523072108 74 126 0.0 0.0 0.00 0.00 0.00 95 1021.3
20220523071558 74 126 0.0 0.0 0.00 0.00 0.00 95 1021.4
20220523071053 74 126 0.0 0.0 0.00 0.00 0.00 94 1021.5
20220523070547 74 126 0.0 0.0 0.00 0.00 0.00 94 1021.6
20220523070048 75 126 0.0 0.0 0.00 0.00 0.00 94 1021.7
20220523065534 75 126 0.0 0.0 0.00 0.00 0.00 94 1021.8
20220523065030 75 126 0.0 0.0 0.00 0.00 0.00 94 1021.9
20220523064523 75 126 0.0 0.0 0.00 0.00 0.00 94 1021.8
20220523064020 75 126 0.0 0.0 0.00 0.00 0.00 94 1022.0
20220523063519 75 126 0.0 0.0 0.00 0.00 0.00 94 1022.1
20220523063021 75 126 0.0 0.0 0.00 0.00 0.00 94 1022.2
20220523062532 75 126 0.0 0.0 0.00 0.00 0.00 94 1022.1
20220523062020 75 126 0.0 0.0 0.00 0.00 0.00 94 1022.1
20220523061522 75 126 0.0 0.0 0.00 0.00 0.00 94 1022.1
20220523061022 75 114 0.0 0.0 0.00 0.00 0.00 94 1022.2
20220523060519 75 114 0.0 0.0 0.00 0.00 0.00 94 1022.4
20220523060040 76 114 0.0 0.0 0.00 0.00 0.00 94 1022.4
20220523055520 76 114 0.0 0.0 0.00 0.00 0.00 94 1022.5
20220523055019 76 114 0.0 0.0 0.00 0.00 0.00 94 1022.5
20220523054521 76 114 0.0 0.0 0.00 0.00 0.00 94 1022.5
20220523054029 76 114 0.0 0.0 0.00 0.00 0.00 93 1022.5
20220523053516 76 114 0.0 0.0 0.00 0.00 0.00 93 1022.6
20220523053016 76 114 0.0 0.0 0.00 0.00 0.00 93 1022.5
20220523052523 76 114 0.0 0.0 0.00 0.00 0.00 93 1022.5
20220523052022 76 114 0.0 0.0 0.00 0.00 0.00 93 1022.5
20220523051525 76 114 0.0 0.0 0.00 0.00 0.00 93 1022.5
20220523051019 76 114 0.0 0.0 0.00 0.00 0.00 93 1022.5
20220523050520 77 115 0.0 0.0 0.00 0.00 0.00 93 1022.6
20220523050018 77 115 0.0 2.0 0.00 0.00 0.00 92 1022.5
20220523045517 77 115 0.0 2.0 0.00 0.00 0.00 92 1022.6
20220523045019 77 140 0.0 2.0 0.00 0.00 0.00 92 1022.5
20220523044516 77 121 0.0 1.0 0.00 0.00 0.00 92 1022.5
20220523044012 77 144 0.0 1.0 0.00 0.00 0.00 92 1022.6
20220523043514 77 122 0.0 4.0 0.00 0.00 0.00 92 1022.6
20220523043014 77 124 1.0 4.0 0.00 0.00 0.00 92 1022.6
20220523042512 77 118 1.0 4.0 0.00 0.00 0.00 92 1022.6
20220523042012 77 171 0.0 3.0 0.00 0.00 0.00 92 1022.6
20220523041512 77 114 0.0 3.0 0.00 0.00 0.00 92 1022.6
20220523041012 77 124 0.0 4.0 0.00 0.00 0.00 92 1022.6
20220523040513 77 127 0.0 4.0 0.00 0.00 0.00 92 1022.6
20220523040015 77 131 0.0 3.0 0.00 0.00 0.00 92 1022.8
20220523035510 77 102 0.0 1.0 0.00 0.00 0.00 92 1022.8
20220523035002 77 138 0.0 1.0 0.00 0.00 0.00 92 1022.7
20220523034500 77 102 0.0 1.0 0.00 0.00 0.00 92 1022.7
20220523033948 77 134 0.0 2.0 0.00 0.00 0.00 92 1022.8
20220523033444 77 135 0.0 2.0 0.00 0.00 0.00 92 1022.6
20220523032938 77 124 0.0 1.0 0.00 0.00 0.00 91 1022.7
20220523032431 77 120 0.0 1.0 0.00 0.00 0.00 91 1022.6
20220523031928 77 114 0.0 2.0 0.00 0.00 0.00 91 1022.6
20220523031418 77 139 0.0 2.0 0.00 0.00 0.00 91 1022.7
20220523030912 78 123 0.0 2.0 0.00 0.00 0.00 91 1022.8
20220523030406 78 108 0.0 3.0 0.00 0.00 0.00 91 1022.9
20220523025901 78 120 0.0 3.0 0.00 0.00 0.00 91 1022.9
20220523025359 78 122 0.0 3.0 0.00 0.00 0.00 91 1022.9
20220523024851 78 130 0.0 1.0 0.00 0.00 0.00 91 1022.9
20220523024345 78 153 0.0 3.0 0.00 0.00 0.00 90 1022.8
20220523023838 78 98 0.0 3.0 0.00 0.00 0.00 90 1022.9
20220523023333 78 141 0.0 4.0 0.00 0.00 0.00 90 1022.9
20220523022826 78 142 0.0 4.0 0.00 0.00 0.00 90 1023.0
20220523022321 78 113 0.0 2.0 0.00 0.00 0.00 90 1022.9
20220523021813 78 125 0.0 3.0 0.00 0.00 0.00 90 1023.0
20220523021309 79 138 0.0 3.0 0.00 0.00 0.00 89 1022.9
20220523020803 79 151 0.0 4.0 0.00 0.00 0.00 89 1022.9
20220523020258 79 138 1.0 4.0 0.00 0.00 0.00 89 1022.7
20220523015751 79 141 1.0 4.0 0.00 0.00 0.00 89 1022.7
20220523015245 79 101 1.0 4.0 0.00 0.00 0.00 89 1022.7
20220523014736 79 111 0.0 3.0 0.00 0.00 0.00 89 1022.7
20220523014233 79 122 0.0 3.0 0.00 0.00 0.00 88 1022.8
20220523013726 79 124 1.0 5.0 0.00 0.00 0.00 88 1022.7
20220523013218 80 131 1.0 5.0 0.00 0.00 0.00 88 1022.6
20220523012713 80 125 1.0 5.0 0.00 0.00 0.00 88 1022.7
20220523012207 80 159 1.0 6.0 0.00 0.00 0.00 88 1022.7
20220523011702 80 122 1.0 6.0 0.00 0.00 0.00 88 1022.4
20220523011154 80 148 1.0 5.0 0.00 0.00 0.00 87 1022.4
20220523010648 80 150 1.0 5.0 0.00 0.00 0.00 87 1022.4
20220523010142 80 137 1.0 5.0 0.00 0.00 0.00 87 1022.4
20220523005636 80 99 1.0 7.0 0.00 0.00 0.00 87 1022.3
20220523005131 80 122 1.0 7.0 0.00 0.00 0.00 87 1022.1
20220523004626 80 230 1.0 6.0 0.00 0.00 0.00 87 1022.1
20220523004118 81 98 2.0 6.0 0.00 0.00 0.00 87 1022.0
20220523003613 81 127 2.0 6.0 0.00 0.00 0.00 86 1022.0
20220523003110 81 104 2.0 6.0 0.00 0.00 0.00 86 1022.0
20220523002612 81 101 2.0 6.0 0.00 0.00 0.00 86 1021.8
20220523002109 81 120 2.0 8.0 0.00 0.00 0.00 86 1021.9
20220523001609 81 92 2.0 8.0 0.00 0.00 0.00 85 1021.9
20220523001114 82 203 2.0 8.0 0.00 0.00 0.00 85 1021.8
20220523000606 82 120 2.0 8.0 0.00 0.00 0.00 85 1021.8
20220523000108 82 95 2.0 8.0 0.00 0.00 0.00 85 1021.8
20220522235608 82 101 2.0 8.0 0.00 0.00 0.00 84 1021.7
20220522235104 82 122 2.0 9.0 0.00 0.00 0.00 84 1021.7
20220522234605 83 146 3.0 9.0 0.00 0.00 0.00 84 1021.6
20220522234102 83 116 2.0 8.0 0.00 0.00 0.00 84 1021.6
20220522233615 83 152 2.0 8.0 0.00 0.00 0.00 83 1021.6
20220522233106 83 139 3.0 7.0 0.00 0.00 0.00 83 1021.4
20220522232602 83 98 2.0 7.0 0.00 0.00 0.00 82 1021.5
20220522232104 84 169 2.0 6.0 0.00 0.00 0.00 81 1021.5
20220522231602 84 105 2.0 7.0 0.00 0.00 0.00 81 1021.3
20220522231102 84 119 3.0 8.0 0.00 0.00 0.00 81 1021.3
20220522230558 85 108 3.0 9.0 0.00 0.00 0.00 81 1021.2
20220522230058 85 102 2.0 9.0 0.00 0.00 0.00 81 1021.3
20220522225558 85 99 3.0 10.0 0.00 0.00 0.00 80 1021.3
20220522225105 85 131 4.0 10.0 0.00 0.00 0.00 80 1021.2
20220522224604 86 41 3.0 8.0 0.00 0.00 0.00 79 1021.2
20220522224101 86 83 4.0 10.0 0.00 0.00 0.00 78 1021.2
20220522223559 86 120 4.0 10.0 0.00 0.00 0.00 78 1021.3
20220522223059 87 94 3.0 12.0 0.00 0.00 0.00 77 1021.3
20220522222603 87 137 4.0 12.0 0.00 0.00 0.00 76 1021.1
20220522222056 87 252 4.0 10.0 0.00 0.00 0.00 75 1021.2
20220522221557 88 102 4.0 9.0 0.00 0.00 0.00 75 1021.2
20220522221058 88 152 4.0 12.0 0.00 0.00 0.00 74 1021.3
20220522220554 88 86 4.0 12.0 0.00 0.00 0.00 74 1021.3
20220522220101 88 139 4.0 10.0 0.00 0.00 0.00 74 1021.3
20220522215557 89 81 4.0 11.0 0.00 0.00 0.00 74 1021.3
20220522215101 89 96 3.0 11.0 0.00 0.00 0.00 72 1021.3
20220522214554 89 156 3.0 11.0 0.00 0.00 0.00 72 1021.4
20220522214059 89 102 4.0 11.0 0.00 0.00 0.00 72 1021.2
20220522213553 89 124 4.0 11.0 0.00 0.00 0.00 72 1021.3
20220522213051 90 116 4.0 10.0 0.00 0.00 0.00 71 1021.4
20220522212552 89 231 4.0 11.0 0.00 0.00 0.00 72 1021.3
20220522212052 89 70 4.0 11.0 0.00 0.00 0.00 71 1021.3
20220522211550 90 109 3.0 9.0 0.00 0.00 0.00 70 1021.3
20220522211057 90 132 4.0 10.0 0.00 0.00 0.00 70 1021.3
20220522210553 90 146 5.0 10.0 0.00 0.00 0.00 71 1021.4
20220522210054 90 75 4.0 9.0 0.00 0.00 0.00 72 1021.4
20220522205553 90 88 3.0 9.0 0.00 0.00 0.00 71 1021.5
20220522205052 90 108 4.0 9.0 0.00 0.00 0.00 72 1021.4
20220522204549 89 143 4.0 9.0 0.00 0.00 0.00 71 1021.6
20220522204050 90 110 3.0 9.0 0.00 0.00 0.00 73 1021.5
20220522203546 89 70 4.0 10.0 0.00 0.00 0.00 73 1021.7
20220522203044 89 64 4.0 10.0 0.00 0.00 0.00 73 1021.7
20220522202545 89 79 4.0 10.0 0.00 0.00 0.00 73 1021.8
20220522202045 89 179 4.0 12.0 0.00 0.00 0.00 74 1022.0
20220522201544 89 120 4.0 12.0 0.00 0.00 0.00 75 1022.2
20220522201042 89 209 4.0 9.0 0.00 0.00 0.00 75 1022.2
20220522200540 88 67 4.0 9.0 0.00 0.00 0.00 76 1022.2
20220522200047 88 60 3.0 8.0 0.00 0.00 0.00 75 1022.3
20220522195541 88 55 3.0 13.0 0.00 0.00 0.00 76 1022.4
20220522195040 87 61 3.0 13.0 0.00 0.00 0.00 77 1022.3
20220522194540 87 162 3.0 11.0 0.00 0.00 0.00 78 1022.4
20220522194038 88 125 4.0 9.0 0.00 0.00 0.00 77 1022.5
20220522193538 88 45 4.0 10.0 0.00 0.00 0.00 77 1022.6
20220522193039 88 136 4.0 10.0 0.00 0.00 0.00 76 1022.7
20220522192542 88 93 3.0 11.0 0.00 0.00 0.00 77 1022.8
20220522192039 88 105 4.0 12.0 0.00 0.00 0.00 77 1022.8
20220522191533 88 94 4.0 12.0 0.00 0.00 0.00 76 1022.9
20220522191023 89 159 3.0 10.0 0.00 0.00 0.00 74 1022.9
20220522190517 90 68 2.0 10.0 0.00 0.00 0.00 72 1023.0
20220522190011 90 105 2.0 9.0 0.00 0.00 0.00 71 1023.1
20220522185507 90 97 3.0 9.0 0.00 0.00 0.00 72 1023.2
20220522185004 90 51 3.0 9.0 0.00 0.00 0.00 70 1023.2
20220522184454 91 105 2.0 9.0 0.00 0.00 0.00 68 1023.2
20220522183951 92 205 2.0 6.0 0.00 0.00 0.00 69 1023.3
20220522183441 91 103 2.0 6.0 0.00 0.00 0.00 70 1023.3
20220522182937 91 112 3.0 12.0 0.00 0.00 0.00 72 1023.4
20220522182433 91 150 4.0 12.0 0.00 0.00 0.00 71 1023.5
20220522181925 92 126 3.0 11.0 0.00 0.00 0.00 69 1023.5
20220522181420 92 143 4.0 11.0 0.00 0.00 0.00 69 1023.5
20220522180911 91 99 5.0 16.0 0.00 0.00 0.00 69 1023.5
20220522180411 90 69 4.0 16.0 0.00 0.00 0.00 68 1023.6
20220522175901 90 137 3.0 9.0 0.00 0.00 0.00 70 1023.5
20220522175357 89 93 4.0 12.0 0.00 0.00 0.00 74 1023.8
20220522174850 89 81 4.0 12.0 0.00 0.00 0.00 74 1023.8
20220522174342 89 96 2.0 8.0 0.00 0.00 0.00 72 1023.7
20220522173835 90 65 2.0 7.0 0.00 0.00 0.00 70 1023.8
20220522173332 90 218 3.0 10.0 0.00 0.00 0.00 71 1023.9
20220522172823 90 87 4.0 11.0 0.00 0.00 0.00 70 1023.9
20220522172317 90 101 5.0 11.0 0.00 0.00 0.00 70 1024.0
20220522171814 90 154 3.0 11.0 0.00 0.00 0.00 68 1024.1
20220522171311 91 92 3.0 10.0 0.00 0.00 0.00 69 1024.1
20220522170800 91 108 3.0 12.0 0.00 0.00 0.00 68 1024.0
20220522170253 91 130 4.0 12.0 0.00 0.00 0.00 69 1024.0
20220522165749 91 122 4.0 10.0 0.00 0.00 0.00 67 1024.0
20220522165241 91 148 3.0 9.0 0.00 0.00 0.00 67 1024.1
20220522164742 91 281 3.0 9.0 0.00 0.00 0.00 68 1024.1
20220522164232 90 112 3.0 12.0 0.00 0.00 0.00 69 1024.2
20220522163725 91 97 2.0 12.0 0.00 0.00 0.00 68 1024.3
20220522163218 90 119 2.0 7.0 0.00 0.00 0.00 69 1024.3
20220522162712 90 92 3.0 11.0 0.00 0.00 0.00 69 1024.4
20220522162205 90 158 4.0 11.0 0.00 0.00 0.00 70 1024.3
20220522161659 89 75 4.0 11.0 0.00 0.00 0.00 70 1024.4
20220522161155 89 130 4.0 10.0 0.00 0.00 0.00 70 1024.5
20220522160651 89 142 4.0 9.0 0.00 0.00 0.00 70 1024.4
20220522160145 89 121 3.0 9.0 0.00 0.00 0.00 69 1024.3
20220522155640 90 82 3.0 10.0 0.00 0.00 0.00 71 1024.3
20220522155130 90 138 2.0 10.0 0.00 0.00 0.00 71 1024.4
20220522154623 90 110 4.0 12.0 0.00 0.00 0.00 72 1024.4
20220522154118 90 141 4.0 12.0 0.00 0.00 0.00 69 1024.4
20220522153616 90 77 3.0 11.0 0.00 0.00 0.00 70 1024.3
20220522153108 90 125 3.0 12.0 0.00 0.00 0.00 69 1024.3
20220522152601 89 203 3.0 13.0 0.00 0.00 0.00 71 1024.3
20220522152055 89 146 2.0 13.0 0.00 0.00 0.00 70 1024.2
20220522151553 90 162 2.0 7.0 0.00 0.00 0.00 70 1024.3
20220522151051 89 68 3.0 10.0 0.00 0.00 0.00 72 1024.2
20220522150551 88 132 4.0 10.0 0.00 0.00 0.00 72 1024.3
20220522150052 88 138 3.0 11.0 0.00 0.00 0.00 70 1024.3
20220522145553 89 115 2.0 11.0 0.00 0.00 0.00 69 1024.2
20220522145050 89 88 3.0 10.0 0.00 0.00 0.00 71 1024.3
20220522144555 89 137 3.0 10.0 0.00 0.00 0.00 71 1024.3
20220522144050 90 172 2.0 6.0 0.00 0.00 0.00 71 1024.3
20220522143553 89 108 2.0 12.0 0.00 0.00 0.00 71 1024.3
20220522143051 88 46 3.0 12.0 0.00 0.00 0.00 72 1024.4
20220522142549 89 304 2.0 9.0 0.00 0.00 0.00 71 1024.3
20220522142053 88 198 2.0 11.0 0.00 0.00 0.00 71 1024.2
20220522141554 88 191 3.0 11.0 0.00 0.00 0.00 72 1024.1
20220522141053 87 135 2.0 9.0 0.00 0.00 0.00 73 1024.0
20220522140554 87 133 2.0 8.0 0.00 0.00 0.00 74 1024.1
20220522140051 87 185 4.0 16.0 0.00 0.00 0.00 74 1024.1
20220522135555 86 181 5.0 16.0 0.00 0.00 0.00 76 1024.0
20220522135042 86 139 3.0 12.0 0.00 0.00 0.00 76 1024.0
20220522134546 86 59 4.0 12.0 0.00 0.00 0.00 77 1024.0
20220522134040 86 147 4.0 12.0 0.00 0.00 0.00 77 1024.0
20220522133542 86 84 3.0 11.0 0.00 0.00 0.00 77 1024.0
20220522133042 86 148 2.0 11.0 0.00 0.00 0.00 78 1024.0
20220522132539 86 152 2.0 6.0 0.00 0.00 0.00 79 1024.0
20220522132047 85 163 2.0 8.0 0.00 0.00 0.00 80 1023.9
20220522131543 85 83 3.0 8.0 0.00 0.00 0.00 81 1024.0
20220522131043 84 120 3.0 9.0 0.00 0.00 0.00 81 1024.0
20220522130543 84 115 3.0 9.0 0.00 0.00 0.00 82 1024.0
20220522130049 84 131 3.0 9.0 0.00 0.00 0.00 83 1024.0
20220522125535 84 137 3.0 9.0 0.00 0.00 0.00 84 1024.0
20220522125047 83 150 3.0 7.0 0.00 0.00 0.00 84 1024.0
20220522124538 84 49 1.0 6.0 0.00 0.00 0.00 85 1023.8
20220522124040 83 145 1.0 6.0 0.00 0.00 0.00 86 1023.9
20220522123535 83 155 2.0 6.0 0.00 0.00 0.00 86 1023.8
20220522123037 83 147 1.0 5.0 0.00 0.00 0.00 88 1023.8
20220522122535 82 140 1.0 7.0 0.00 0.00 0.00 89 1023.7
20220522122039 82 132 2.0 8.0 0.00 0.00 0.00 90 1023.6
20220522121537 81 99 2.0 8.0 0.00 0.00 0.00 90 1023.4
20220522121039 81 113 2.0 7.0 0.00 0.00 0.00 90 1023.4
20220522120536 81 140 2.0 7.0 0.00 0.00 0.00 91 1023.4
20220522120047 80 162 1.0 7.0 0.00 0.00 0.00 91 1023.4
20220522115536 80 147 1.0 5.0 0.00 0.00 0.00 92 1023.3
20220522115038 80 210 1.0 5.0 0.00 0.00 0.00 92 1023.3
20220522114536 79 67 0.0 4.0 0.00 0.00 0.00 92 1023.4
20220522114036 79 113 0.0 2.0 0.00 0.00 0.00 93 1023.4
20220522113536 78 124 0.0 2.0 0.00 0.00 0.00 93 1023.3
20220522113036 78 109 0.0 2.0 0.00 0.00 0.00 94 1023.3
20220522112534 77 133 0.0 1.0 0.00 0.00 0.00 94 1023.2
20220522112033 77 124 0.0 0.0 0.00 0.00 0.00 94 1023.3
20220522111534 77 115 0.0 0.0 0.00 0.00 0.00 94 1023.3
20220522111035 76 107 0.0 0.0 0.00 0.00 0.00 94 1023.3
20220522110529 76 107 0.0 1.0 0.00 0.00 0.00 94 1023.2
20220522110041 76 95 0.0 1.0 0.00 0.00 0.00 94 1023.0
20220522105524 76 131 0.0 0.0 0.00 0.00 0.00 95 1022.9
20220522105016 76 105 0.0 1.0 0.00 0.00 0.00 95 1022.9
20220522104526 76 134 0.0 4.0 0.00 0.00 0.00 95 1022.8
20220522104008 76 123 1.0 4.0 0.00 0.00 0.00 95 1022.7
20220522103459 76 136 1.0 4.0 0.00 0.00 0.00 95 1022.6
20220522102952 76 133 1.0 4.0 0.00 0.00 0.00 96 1022.6
20220522102446 76 125 0.0 3.0 0.00 0.00 0.00 96 1022.6
20220522101945 76 141 0.0 3.0 0.00 0.00 0.00 96 1022.6